Tracking 18793 objects as of 25-September-2017
HD Live streaming from Space Station
objects crossing your sky now

GALAXY 4R

Track GALAXY 4R now!
GALAXY 4R is classified as:


NORAD ID: 26298
Int'l Code: 2000-020A
Perigee: 35,888.0 km
Apogee: 35,947.2 km
Inclination: 8.7 °
Period: 1,442.4 minutes
Semi major axis: 42288 km
RCS: 26.0372 m2 (large)
Launch date: April 19, 2000
Source: United States (US)
Launch site: FRENCH GUIANA (FRGUI)

Television and Internet; 24 C-band, 24 Ku-band; North America.
aabbcc
Your satellite tracking list
Your tracking list is empty





NASA's NSSDC Master Catalog

Two Line Element Set (TLE):
1 26298U 00020A   17267.73035257 -.00000288  00000-0  00000+0 0  9992
2 26298   8.6610  45.1988 0007005 172.7701 154.6028  0.99831525 63830
Source of the keplerian elements: AFSPC